Private Wetterstation Wechselburg
Wetterdaten: Dienstag, 21.02.2023
Datum Zeit Temp. +2m Bodentemp. Temp.+5cm Temp. Wind Windchill X Diff Temp. Feuchte +2m Feuchte +5cm Luftdruck Regen Wind Richtung Richtung Sonnenschein Taupunkt Windchill Windben
21.02.2023 00:00 9,5 C 8,9 C -29,0 C 9,1 C 7,7 C 0,0 C 76 % 96 % 1016,9 hPa 0,0 l/m 14,0 km/h (3 Bft) S-SW 202 0 min 5,5 C 5,2 C 12,9 km/h (3 Bft)
21.02.2023 00:05 9,5 C 8,9 C -30,1 C 9,2 C 8,0 C 0,0 C 76 % 96 % 1016,9 hPa 0,0 l/m 12,2 km/h (2 Bft) SW 225 0 min 5,5 C 5,9 C 15,1 km/h (3 Bft)
21.02.2023 00:10 9,5 C 8,9 C -30,9 C 9,2 C 7,9 C 0,0 C 76 % 95 % 1016,9 hPa 0,0 l/m 12,1 km/h (2 Bft) S-SW 202 0 min 5,5 C 5,8 C 13,7 km/h (3 Bft)
21.02.2023 00:15 9,4 C 8,9 C -30,9 C 9,1 C 7,8 C 0,0 C 77 % 95 % 1016,9 hPa 0,0 l/m 13,0 km/h (3 Bft) W 270 0 min 5,6 C 5,5 C 22,5 km/h (4 Bft)
21.02.2023 00:20 9,4 C 8,9 C -30,9 C 9,1 C 7,7 C 0,0 C 77 % 95 % 1016,9 hPa 0,0 l/m 12,7 km/h (3 Bft) S-SW 202 0 min 5,6 C 5,4 C 15,8 km/h (3 Bft)
21.02.2023 00:25 9,3 C 8,9 C -33,3 C 9,0 C 8,1 C 0,0 C 77 % 95 % 1017,6 hPa 0,0 l/m 10,5 km/h (2 Bft) S-SW 202 0 min 5,5 C 6,3 C 23,2 km/h (4 Bft)
21.02.2023 00:30 9,3 C 8,9 C -33,3 C 9,1 C 8,2 C 0,0 C 77 % 95 % 1017,6 hPa 0,0 l/m 9,8 km/h (2 Bft) SW 225 0 min 5,5 C 6,5 C 9,5 km/h (2 Bft)
21.02.2023 00:35 9,2 C 8,9 C -32,3 C 8,9 C 8,2 C 0,0 C 78 % 95 % 1017,6 hPa 0,0 l/m 9,2 km/h (2 Bft) W-SW 247 0 min 5,6 C 6,6 C 16,3 km/h (3 Bft)
21.02.2023 00:40 9,2 C 8,9 C -26,9 C 9,0 C 8,1 C 0,0 C 77 % 97 % 1017,6 hPa 0,0 l/m 9,7 km/h (2 Bft) S-SW 202 0 min 5,4 C 6,4 C 16,1 km/h (3 Bft)
21.02.2023 00:45 9,2 C 8,9 C -26,9 C 9,0 C 7,9 C 0,0 C 77 % 97 % 1017,4 hPa 0,0 l/m 11,7 km/h (2 Bft) W-SW 247 0 min 5,4 C 5,8 C 10,5 km/h (2 Bft)
21.02.2023 00:50 9,2 C 8,9 C -37,7 C 8,9 C 7,7 C 0,0 C 77 % 93 % 1017,4 hPa 0,0 l/m 12,6 km/h (3 Bft) S-SW 202 0 min 5,4 C 5,4 C 19,6 km/h (3 Bft)
21.02.2023 00:55 9,3 C 8,9 C -37,7 C 8,8 C 7,7 C 0,0 C 76 % 93 % 1017,4 hPa 0,0 l/m 13,0 km/h (3 Bft) S 180 0 min 5,3 C 5,4 C 11,7 km/h (2 Bft)
21.02.2023 01:00 9,2 C 8,9 C -35,8 C 8,7 C 7,7 C 0,0 C 76 % 94 % 1017,4 hPa 0,0 l/m 12,7 km/h (3 Bft) SW 225 0 min 5,2 C 5,4 C 14,8 km/h (3 Bft)
21.02.2023 01:05 9,2 C 8,9 C -34,4 C 8,7 C 7,7 C 0,0 C 76 % 94 % 1016,8 hPa 0,0 l/m 12,1 km/h (2 Bft) W-SW 247 0 min 5,2 C 5,5 C 13,5 km/h (3 Bft)
21.02.2023 01:10 9,3 C 8,9 C -34,4 C 8,8 C 7,7 C 0,0 C 77 % 94 % 1016,8 hPa 0,0 l/m 11,7 km/h (2 Bft) SW 225 0 min 5,5 C 5,6 C 10,6 km/h (2 Bft)
21.02.2023 01:15 9,3 C 8,9 C -37,0 C 8,8 C 7,7 C 0,0 C 77 % 93 % 1016,8 hPa 0,0 l/m 12,1 km/h (2 Bft) SW 225 0 min 5,5 C 5,5 C 23,5 km/h (4 Bft)
21.02.2023 01:20 9,2 C 8,9 C -37,0 C 8,9 C 7,8 C 0,0 C 77 % 93 % 1016,8 hPa 0,0 l/m 11,6 km/h (2 Bft) SW 225 0 min 5,4 C 5,7 C 18,8 km/h (3 Bft)
21.02.2023 01:25 9,2 C 8,9 C -36,6 C 8,7 C 7,8 C 0,0 C 77 % 94 % 1016,8 hPa 0,0 l/m 11,1 km/h (2 Bft) S 180 0 min 5,4 C 5,8 C 15,3 km/h (3 Bft)
21.02.2023 01:30 9,2 C 8,9 C -36,6 C 8,9 C 7,7 C 0,0 C 77 % 94 % 1016,8 hPa 0,0 l/m 12,1 km/h (2 Bft) SW 225 0 min 5,4 C 5,5 C 19,8 km/h (3 Bft)
21.02.2023 01:35 9,2 C 8,9 C -36,6 C 8,9 C 7,6 C 0,0 C 76 % 94 % 1016,8 hPa 0,0 l/m 13,4 km/h (3 Bft) SW 225 0 min 5,2 C 5,2 C 17,4 km/h (3 Bft)
21.02.2023 01:40 9,2 C 8,9 C -38,3 C 8,9 C 7,7 C 0,0 C 76 % 93 % 1016,8 hPa 0,0 l/m 12,7 km/h (3 Bft) SW 225 0 min 5,2 C 5,4 C 12,4 km/h (3 Bft)
21.02.2023 01:45 9,2 C 8,9 C -38,3 C 8,9 C 7,9 C 0,0 C 77 % 93 % 1016,4 hPa 0,0 l/m 10,5 km/h (2 Bft) S 180 0 min 5,4 C 6,0 C 20,8 km/h (4 Bft)
21.02.2023 01:50 9,2 C 8,9 C -38,3 C 8,8 C 7,9 C 0,0 C 77 % 93 % 1016,4 hPa 0,0 l/m 10,5 km/h (2 Bft) SW 225 0 min 5,4 C 6,0 C 12,6 km/h (3 Bft)
21.02.2023 01:55 9,2 C 8,9 C -38,2 C 8,8 C 7,9 C 0,0 C 77 % 93 % 1016,4 hPa 0,0 l/m 10,5 km/h (2 Bft) S 180 0 min 5,4 C 6,0 C 17,1 km/h (3 Bft)
21.02.2023 02:00 9,2 C 8,9 C -38,2 C 9,0 C 8,1 C 0,0 C 77 % 93 % 1016,4 hPa 0,0 l/m 10,0 km/h (2 Bft) SW 225 0 min 5,4 C 6,4 C 10,1 km/h (2 Bft)
21.02.2023 02:05 9,2 C 8,9 C -37,3 C 9,0 C 8,0 C 0,0 C 77 % 93 % 1016,4 hPa 0,0 l/m 10,1 km/h (2 Bft) S-SW 202 0 min 5,4 C 6,2 C 21,4 km/h (4 Bft)
21.02.2023 02:10 9,2 C 8,9 C -37,3 C 9,0 C 8,2 C 0,0 C 77 % 93 % 1016,4 hPa 0,0 l/m 9,0 km/h (2 Bft) W-SW 247 0 min 5,4 C 6,7 C 5,1 km/h (1 Bft)
21.02.2023 02:15 9,2 C 8,9 C -30,9 C 9,0 C 8,1 C 0,0 C 77 % 95 % 1016,4 hPa 0,0 l/m 9,8 km/h (2 Bft) S-SW 202 0 min 5,4 C 6,4 C 9,0 km/h (2 Bft)
21.02.2023 02:20 9,3 C 8,9 C -30,5 C 8,9 C 8,1 C 0,0 C 77 % 96 % 1016,4 hPa 0,0 l/m 9,8 km/h (2 Bft) SW 225 0 min 5,5 C 6,4 C 14,0 km/h (3 Bft)
21.02.2023 02:25 9,2 C 8,9 C -30,5 C 8,8 C 8,1 C 0,0 C 77 % 96 % 1016,4 hPa 0,0 l/m 9,5 km/h (2 Bft) W-SW 247 0 min 5,4 C 6,5 C 9,5 km/h (2 Bft)
21.02.2023 02:30 9,2 C 8,9 C -31,6 C 8,8 C 8,1 C 0,0 C 77 % 95 % 1016,4 hPa 0,0 l/m 9,7 km/h (2 Bft) SW 225 0 min 5,4 C 6,4 C 18,0 km/h (3 Bft)
21.02.2023 02:35 9,2 C 8,9 C -31,6 C 8,8 C 8,1 C 0,0 C 78 % 95 % 1016,4 hPa 0,0 l/m 9,7 km/h (2 Bft) SW 225 0 min 5,6 C 6,4 C 12,4 km/h (3 Bft)
21.02.2023 02:40 9,2 C 8,9 C -31,6 C 9,0 C 8,2 C 0,0 C 78 % 95 % 1016,4 hPa 0,0 l/m 9,0 km/h (2 Bft) S 180 0 min 5,6 C 6,7 C 9,0 km/h (2 Bft)
21.02.2023 02:45 9,2 C 8,9 C -33,6 C 9,0 C 8,3 C 0,0 C 78 % 95 % 1016,4 hPa 0,0 l/m 8,5 km/h (2 Bft) W-SW 247 0 min 5,6 C 6,9 C 13,0 km/h (3 Bft)
21.02.2023 02:50 9,2 C 8,9 C -33,6 C 8,9 C 8,3 C 0,0 C 78 % 95 % 1016,4 hPa 0,0 l/m 8,5 km/h (2 Bft) S-SW 202 0 min 5,6 C 6,9 C 6,1 km/h (2 Bft)
21.02.2023 02:55 9,2 C 8,9 C -32,2 C 8,9 C 8,3 C 0,0 C 78 % 95 % 1016,4 hPa 0,0 l/m 8,5 km/h (2 Bft) S 180 0 min 5,6 C 6,9 C 12,7 km/h (3 Bft)
21.02.2023 03:00 9,2 C 8,9 C -32,2 C 9,0 C 8,4 C 0,0 C 78 % 95 % 1016,4 hPa 0,0 l/m 8,2 km/h (2 Bft) SW 225 0 min 5,6 C 7,1 C 5,8 km/h (2 Bft)
21.02.2023 03:05 9,2 C 8,9 C -32,2 C 8,9 C 8,4 C 0,0 C 78 % 95 % 1017,1 hPa 0,0 l/m 7,7 km/h (2 Bft) S-SW 202 0 min 5,6 C 7,2 C 8,2 km/h (2 Bft)
21.02.2023 03:10 9,3 C 8,9 C -32,2 C 9,1 C 8,3 C 0,0 C 78 % 95 % 1017,1 hPa 0,0 l/m 8,4 km/h (2 Bft) S-SW 202 0 min 5,7 C 6,9 C 11,6 km/h (2 Bft)
21.02.2023 03:15 9,2 C 8,9 C -32,2 C 9,1 C 8,4 C 0,0 C 78 % 95 % 1017,1 hPa 0,0 l/m 8,9 km/h (2 Bft) S-SW 202 0 min 5,6 C 6,9 C 8,9 km/h (2 Bft)
21.02.2023 03:20 9,3 C 8,9 C -32,2 C 9,2 C 8,6 C 0,0 C 78 % 95 % 1017,1 hPa 0,0 l/m 8,0 km/h (2 Bft) SW 225 0 min 5,7 C 7,4 C 10,0 km/h (2 Bft)
21.02.2023 03:25 9,2 C 8,9 C -32,4 C 9,0 C 8,7 C 0,0 C 78 % 95 % 1016,1 hPa 0,0 l/m 7,4 km/h (2 Bft) SW 225 0 min 5,6 C 7,6 C 12,6 km/h (3 Bft)
21.02.2023 03:30 9,2 C 8,9 C -32,8 C 9,1 C 8,9 C 0,0 C 78 % 95 % 1016,1 hPa 0,0 l/m 6,3 km/h (2 Bft) SW 225 0 min 5,6 C 8,1 C 6,9 km/h (2 Bft)
21.02.2023 03:35 9,3 C 8,9 C -33,3 C 9,1 C 8,7 C 0,0 C 78 % 95 % 1016,1 hPa 0,0 l/m 7,2 km/h (2 Bft) SW 225 0 min 5,7 C 7,7 C 12,4 km/h (3 Bft)
21.02.2023 03:40 9,3 C 8,9 C -33,3 C 9,2 C 8,4 C 0,0 C 78 % 95 % 1016,1 hPa 0,0 l/m 8,4 km/h (2 Bft) W-SW 247 0 min 5,7 C 7,0 C 12,4 km/h (3 Bft)
21.02.2023 03:45 9,5 C 8,9 C -31,1 C 9,1 C 8,4 C 0,0 C 78 % 95 % 1016,1 hPa 0,0 l/m 9,7 km/h (2 Bft) S-SW 202 0 min 5,9 C 6,8 C 12,9 km/h (3 Bft)
21.02.2023 03:50 9,5 C 8,9 C -31,1 C 9,1 C 8,4 C 0,0 C 78 % 95 % 1016,1 hPa 0,0 l/m 9,5 km/h (2 Bft) S 180 0 min 5,9 C 6,8 C 6,9 km/h (2 Bft)
21.02.2023 03:55 9,4 C 8,9 C -31,1 C 9,2 C 8,6 C 0,0 C 78 % 95 % 1016,1 hPa 0,0 l/m 8,7 km/h (2 Bft) W-NW 292 0 min 5,8 C 7,2 C 14,8 km/h (3 Bft)
21.02.2023 04:00 9,4 C 8,9 C -30,1 C 9,1 C 8,6 C 0,0 C 78 % 96 % 1016,1 hPa 0,0 l/m 8,5 km/h (2 Bft) SW 225 0 min 5,8 C 7,3 C 8,4 km/h (2 Bft)
21.02.2023 04:05 9,4 C 8,9 C -28,9 C 9,1 C 8,6 C 0,0 C 78 % 96 % 1015,9 hPa 0,0 l/m 8,5 km/h (2 Bft) W-SW 247 0 min 5,8 C 7,3 C 16,4 km/h (3 Bft)
21.02.2023 04:10 9,5 C 8,9 C -28,9 C 9,3 C 8,7 C 0,0 C 78 % 96 % 1015,9 hPa 0,0 l/m 8,2 km/h (2 Bft) S-SW 202 0 min 5,9 C 7,4 C 11,6 km/h (2 Bft)
21.02.2023 04:15 9,5 C 8,9 C -29,1 C 9,3 C 8,4 C 0,0 C 78 % 96 % 1015,9 hPa 0,0 l/m 9,2 km/h (2 Bft) S 180 0 min 5,9 C 6,9 C 13,2 km/h (3 Bft)
21.02.2023 04:20 9,4 C 8,9 C -29,1 C 9,1 C 8,4 C 0,0 C 78 % 96 % 1015,9 hPa 0,0 l/m 9,2 km/h (2 Bft) SW 225 0 min 5,8 C 6,9 C 10,1 km/h (2 Bft)
21.02.2023 04:25 9,4 C 8,9 C -30,1 C 9,2 C 8,6 C 0,0 C 78 % 96 % 1015,8 hPa 0,0 l/m 8,7 km/h (2 Bft) SW 225 0 min 5,8 C 7,2 C 10,6 km/h (2 Bft)
21.02.2023 04:30 9,4 C 9,0 C -30,1 C 9,3 C 8,7 C 0,0 C 78 % 96 % 1015,8 hPa 0,0 l/m 7,9 km/h (2 Bft) SW 225 0 min 5,8 C 7,5 C 4,5 km/h (1 Bft)
21.02.2023 04:35 9,5 C 9,0 C -30,1 C 9,4 C 8,8 C 0,0 C 78 % 96 % 1015,8 hPa 0,0 l/m 7,7 km/h (2 Bft) S-SW 202 0 min 5,9 C 7,7 C 11,7 km/h (2 Bft)
21.02.2023 04:40 9,5 C 9,0 C -29,4 C 9,3 C 8,8 C 0,0 C 78 % 96 % 1015,8 hPa 0,0 l/m 7,6 km/h (2 Bft) W-SW 247 0 min 5,9 C 7,7 C 10,1 km/h (2 Bft)
21.02.2023 04:45 9,5 C 9,0 C -28,1 C 9,3 C 8,8 C 0,0 C 78 % 96 % 1015,8 hPa 0,0 l/m 7,6 km/h (2 Bft) SW 225 0 min 5,9 C 7,7 C 7,6 km/h (2 Bft)
21.02.2023 04:50 9,5 C 9,0 C -30,2 C 9,4 C 8,7 C 0,0 C 78 % 96 % 1015,8 hPa 0,0 l/m 7,9 km/h (2 Bft) SW 225 0 min 5,9 C 7,5 C 10,8 km/h (2 Bft)
21.02.2023 04:55 9,5 C 9,0 C -30,2 C 9,2 C 8,7 C 0,0 C 78 % 96 % 1015,8 hPa 0,0 l/m 8,0 km/h (2 Bft) SW 225 0 min 5,9 C 7,5 C 5,8 km/h (2 Bft)
21.02.2023 05:00 9,5 C 9,0 C -30,2 C 9,3 C 8,6 C 0,0 C 78 % 96 % 1015,8 hPa 0,0 l/m 9,0 km/h (2 Bft) W-SW 247 0 min 5,9 C 7,2 C 10,6 km/h (2 Bft)
21.02.2023 05:05 9,6 C 9,0 C -30,5 C 9,4 C 8,4 C 0,0 C 78 % 96 % 1015,6 hPa 0,0 l/m 9,7 km/h (2 Bft) SW 225 0 min 6,0 C 6,8 C 10,8 km/h (2 Bft)
21.02.2023 05:10 9,6 C 9,0 C -30,5 C 9,3 C 8,3 C 0,0 C 78 % 96 % 1015,6 hPa 0,0 l/m 10,3 km/h (2 Bft) SW 225 0 min 6,0 C 6,5 C 14,0 km/h (3 Bft)
21.02.2023 05:15 9,5 C 9,0 C -29,9 C 9,3 C 8,4 C 0,0 C 78 % 96 % 1015,6 hPa 0,0 l/m 9,5 km/h (2 Bft) S 180 0 min 5,9 C 6,8 C 10,0 km/h (2 Bft)
21.02.2023 05:20 9,6 C 9,0 C -29,6 C 9,3 C 8,3 C 0,0 C 79 % 96 % 1015,6 hPa 0,0 l/m 10,1 km/h (2 Bft) SW 225 0 min 6,1 C 6,6 C 19,0 km/h (3 Bft)
21.02.2023 05:25 9,6 C 9,0 C -29,6 C 9,3 C 8,2 C 0,0 C 79 % 96 % 1015,6 hPa 0,0 l/m 10,6 km/h (2 Bft) S-SW 202 0 min 6,1 C 6,4 C 9,2 km/h (2 Bft)
21.02.2023 05:30 9,5 C 9,0 C -29,7 C 9,1 C 8,2 C 0,0 C 79 % 96 % 1015,6 hPa 0,0 l/m 11,1 km/h (2 Bft) SW 225 0 min 6,0 C 6,3 C 10,8 km/h (2 Bft)
21.02.2023 05:35 9,5 C 9,0 C -29,7 C 9,1 C 8,2 C 0,0 C 79 % 96 % 1015,6 hPa 0,0 l/m 10,8 km/h (2 Bft) SW 225 0 min 6,0 C 6,3 C 8,5 km/h (2 Bft)
21.02.2023 05:40 9,6 C 9,0 C -29,7 C 9,1 C 8,2 C 0,0 C 79 % 96 % 1015,6 hPa 0,0 l/m 10,8 km/h (2 Bft) W-SW 247 0 min 6,1 C 6,3 C 8,9 km/h (2 Bft)
21.02.2023 05:45 9,6 C 9,0 C -29,8 C 9,1 C 8,2 C 0,0 C 79 % 96 % 1015,7 hPa 0,0 l/m 10,8 km/h (2 Bft) NW 315 0 min 6,1 C 6,3 C 12,6 km/h (3 Bft)
21.02.2023 05:50 9,7 C 9,0 C -29,8 C 9,4 C 8,3 C 0,0 C 79 % 96 % 1015,7 hPa 0,0 l/m 10,8 km/h (2 Bft) SW 225 0 min 6,2 C 6,5 C 13,7 km/h (3 Bft)
21.02.2023 05:55 9,6 C 9,0 C -30,2 C 9,2 C 8,3 C 0,0 C 79 % 96 % 1015,7 hPa 0,0 l/m 11,4 km/h (2 Bft) SW 225 0 min 6,1 C 6,4 C 13,5 km/h (3 Bft)
21.02.2023 06:00 9,6 C 9,0 C -30,2 C 9,3 C 8,2 C 0,0 C 79 % 96 % 1015,7 hPa 0,0 l/m 11,9 km/h (2 Bft) S-SW 202 0 min 6,1 C 6,2 C 15,0 km/h (3 Bft)
21.02.2023 06:05 9,6 C 9,0 C -30,2 C 9,3 C 8,3 C 0,0 C 79 % 96 % 1016,2 hPa 0,0 l/m 11,4 km/h (2 Bft) S-SW 202 0 min 6,1 C 6,4 C 14,0 km/h (3 Bft)
21.02.2023 06:10 9,7 C 9,0 C -30,2 C 9,4 C 8,4 C 0,0 C 79 % 96 % 1016,2 hPa 0,0 l/m 10,6 km/h (2 Bft) W-SW 247 0 min 6,2 C 6,6 C 9,5 km/h (2 Bft)
21.02.2023 06:15 9,6 C 9,0 C -30,2 C 9,4 C 8,6 C 0,0 C 79 % 96 % 1016,2 hPa 0,0 l/m 9,8 km/h (2 Bft) S-SO 157 0 min 6,1 C 7,0 C 7,7 km/h (2 Bft)
21.02.2023 06:20 9,6 C 9,0 C -31,3 C 9,4 C 8,4 C 0,0 C 79 % 95 % 1016,2 hPa 0,0 l/m 10,3 km/h (2 Bft) S-SW 202 0 min 6,1 C 6,7 C 17,7 km/h (3 Bft)
21.02.2023 06:25 9,6 C 9,0 C -31,3 C 9,2 C 8,4 C 0,0 C 79 % 95 % 1015,4 hPa 0,0 l/m 10,6 km/h (2 Bft) S-SW 202 0 min 6,1 C 6,6 C 14,5 km/h (3 Bft)
21.02.2023 06:30 9,6 C 9,0 C -31,3 C 9,4 C 8,3 C 0,0 C 79 % 95 % 1015,4 hPa 0,0 l/m 10,9 km/h (2 Bft) SW 225 0 min 6,1 C 6,4 C 10,6 km/h (2 Bft)
21.02.2023 06:35 9,6 C 9,0 C -33,0 C 9,2 C 8,3 C 0,0 C 79 % 95 % 1015,4 hPa 0,0 l/m 11,3 km/h (2 Bft) W 270 0 min 6,1 C 6,4 C 14,2 km/h (3 Bft)
21.02.2023 06:40 9,6 C 9,0 C -33,0 C 9,2 C 8,3 C 0,0 C 79 % 95 % 1015,4 hPa 0,0 l/m 11,4 km/h (2 Bft) S 180 0 min 6,1 C 6,4 C 9,3 km/h (2 Bft)
21.02.2023 06:45 9,7 C 9,0 C -32,0 C 9,2 C 8,3 C 0,0 C 79 % 95 % 1015,9 hPa 0,0 l/m 11,4 km/h (2 Bft) W-SW 247 0 min 6,2 C 6,4 C 17,7 km/h (3 Bft)
21.02.2023 06:50 9,6 C 9,0 C -32,0 C 9,4 C 8,4 C 0,0 C 79 % 95 % 1015,9 hPa 0,0 l/m 10,5 km/h (2 Bft) SW 225 0 min 6,1 C 6,6 C 11,1 km/h (2 Bft)
21.02.2023 06:55 9,6 C 9,0 C -32,0 C 9,2 C 8,4 C 0,0 C 78 % 95 % 1015,9 hPa 0,0 l/m 10,6 km/h (2 Bft) SW 225 0 min 6,0 C 6,6 C 19,3 km/h (3 Bft)
21.02.2023 07:00 9,6 C 9,0 C -32,6 C 9,4 C 8,5 C 0,0 C 79 % 95 % 1015,9 hPa 0,0 l/m 10,0 km/h (2 Bft) W 270 0 min 6,1 C 6,8 C 12,9 km/h (3 Bft)
21.02.2023 07:05 9,7 C 9,0 C -32,6 C 9,5 C 8,6 C 0,0 C 78 % 95 % 1015,4 hPa 0,0 l/m 10,1 km/h (2 Bft) SW 225 0 min 6,1 C 6,9 C 9,8 km/h (2 Bft)
21.02.2023 07:10 9,7 C 9,0 C -32,1 C 9,5 C 8,7 C 0,0 C 78 % 95 % 1015,4 hPa 0,0 l/m 9,7 km/h (2 Bft) S-SW 202 0 min 6,1 C 7,1 C 9,2 km/h (2 Bft)
21.02.2023 07:15 9,7 C 9,0 C -32,1 C 9,4 C 8,7 C 0,0 C 78 % 95 % 1015,4 hPa 0,0 l/m 9,7 km/h (2 Bft) S 180 0 min 6,1 C 7,1 C 8,5 km/h (2 Bft)
21.02.2023 07:21 9,7 C 9,0 C -32,1 C 9,5 C 8,5 C 0,0 C 78 % 95 % 1015,4 hPa 0,0 l/m 10,8 km/h (2 Bft) SW 225 0 min 6,1 C 6,7 C 9,0 km/h (2 Bft)
21.02.2023 07:25 9,7 C 9,0 C -30,4 C 9,3 C 8,5 C 0,0 C 78 % 96 % 1015,8 hPa 0,0 l/m 10,6 km/h (2 Bft) SW 225 0 min 6,1 C 6,7 C 8,7 km/h (2 Bft)
21.02.2023 07:32 9,7 C 9,0 C -31,4 C 9,5 C 8,6 C 0,0 C 78 % 95 % 1015,8 hPa 0,0 l/m 10,3 km/h (2 Bft) SW 225 0 min 6,1 C 6,9 C 8,4 km/h (2 Bft)
21.02.2023 07:33 9,7 C 9,0 C -31,4 C 9,3 C 8,6 C 0,0 C 78 % 95 % 1015,8 hPa 0,0 l/m 10,3 km/h (2 Bft) SW 225 0 min 6,1 C 6,9 C 8,4 km/h (2 Bft)
21.02.2023 07:34 9,7 C 9,0 C -31,4 C 9,3 C 8,6 C 0,0 C 78 % 95 % 1015,8 hPa 0,0 l/m 10,3 km/h (2 Bft) SW 225 0 min 6,1 C 6,9 C 8,4 km/h (2 Bft)
21.02.2023 07:35 9,7 C 9,0 C -31,4 C 9,3 C 8,6 C 0,0 C 78 % 95 % 1015,8 hPa 0,0 l/m 10,3 km/h (2 Bft) SW 225 0 min 6,1 C 6,9 C 8,4 km/h (2 Bft)
21.02.2023 07:36 9,7 C 9,0 C -31,4 C 9,3 C 8,6 C 0,0 C 78 % 95 % 1015,8 hPa 0,0 l/m 10,3 km/h (2 Bft) SW 225 0 min 6,1 C 6,9 C 8,4 km/h (2 Bft)
21.02.2023 07:38 9,6 C 9,0 C -31,4 C 8,5 C 8,7 C 0,0 C 78 % 95 % 1015,8 hPa 0,0 l/m 9,8 km/h (2 Bft) W-SW 247 0 min 6,0 C 7,1 C 14,8 km/h (3 Bft)
21.02.2023 07:40 9,6 C 9,0 C -31,4 C 9,3 C 8,7 C 0,0 C 78 % 95 % 1015,8 hPa 0,0 l/m 9,8 km/h (2 Bft) W-SW 247 0 min 6,0 C 7,1 C 14,8 km/h (3 Bft)
21.02.2023 07:45 9,7 C 9,0 C -31,4 C 9,5 C 8,6 C 0,0 C 78 % 95 % 1016,1 hPa 0,0 l/m 10,1 km/h (2 Bft) W-SW 247 0 min 6,1 C 6,9 C 12,7 km/h (3 Bft)
21.02.2023 07:50 9,6 C 9,0 C -33,2 C 9,3 C 8,6 C 0,0 C 78 % 95 % 1016,1 hPa 0,0 l/m 10,5 km/h (2 Bft) S 180 0 min 6,0 C 6,9 C 12,1 km/h (2 Bft)
21.02.2023 07:55 9,6 C 9,2 C -33,2 C 9,4 C 8,7 C 0,0 C 78 % 95 % 1016,1 hPa 0,0 l/m 9,5 km/h (2 Bft) W-SW 247 0 min 6,0 C 7,2 C 10,8 km/h (2 Bft)
21.02.2023 08:00 9,6 C 9,2 C -33,2 C 9,4 C 8,6 C 0,0 C 78 % 95 % 1016,1 hPa 0,0 l/m 10,1 km/h (2 Bft) SW 225 0 min 6,0 C 6,9 C 14,2 km/h (3 Bft)
21.02.2023 08:05 9,6 C 9,2 C -34,4 C 9,4 C 8,7 C 0,0 C 78 % 94 % 1016,4 hPa 0,0 l/m 9,7 km/h (2 Bft) S 180 0 min 6,0 C 7,1 C 10,5 km/h (2 Bft)
21.02.2023 08:11 9,7 C 9,2 C -32,9 C 9,5 C 8,6 C 0,0 C 78 % 95 % 1016,4 hPa 0,0 l/m 10,1 km/h (2 Bft) N 0 0 min 6,1 C 6,9 C 17,1 km/h (3 Bft)
21.02.2023 08:26 9,6 C 9,2 C -32,2 C 9,4 C 8,8 C 0,0 C 79 % 95 % 1017,1 hPa 0,0 l/m 8,9 km/h (2 Bft) SW 225 0 min 6,1 C 7,4 C 8,5 km/h (2 Bft)
21.02.2023 08:27 9,6 C 9,2 C -32,2 C 9,3 C 8,8 C 0,0 C 79 % 95 % 1017,1 hPa 0,0 l/m 8,9 km/h (2 Bft) SW 225 0 min 6,1 C 7,4 C 8,5 km/h (2 Bft)
21.02.2023 08:41 9,6 C 9,2 C -32,2 C 9,5 C 8,7 C 0,0 C 79 % 95 % 1016,8 hPa 0,0 l/m 9,8 km/h (2 Bft) SW 225 0 min 6,1 C 7,1 C 16,4 km/h (3 Bft)
21.02.2023 08:42 9,6 C 9,2 C -32,2 C 9,3 C 8,7 C 0,0 C 79 % 95 % 1016,8 hPa 0,0 l/m 9,8 km/h (2 Bft) SW 225 0 min 6,1 C 7,1 C 16,4 km/h (3 Bft)
21.02.2023 08:50 9,6 C 9,2 C -32,2 C 9,3 C 8,7 C 0,0 C 79 % 95 % 1016,8 hPa 0,0 l/m 9,8 km/h (2 Bft) SW 225 0 min 6,1 C 7,1 C 15,9 km/h (3 Bft)
21.02.2023 08:55 9,6 C 9,2 C -32,3 C 9,3 C 8,7 C 0,0 C 80 % 95 % 1016,8 hPa 0,0 l/m 9,5 km/h (2 Bft) S-SW 202 0 min 6,3 C 7,2 C 9,2 km/h (2 Bft)
21.02.2023 09:00 9,5 C 9,2 C -31,4 C 9,4 C 8,9 C 0,0 C 80 % 96 % 1016,8 hPa 0,0 l/m 9,0 km/h (2 Bft) W-SW 247 0 min 6,2 C 7,5 C 13,4 km/h (3 Bft)
21.02.2023 09:05 9,5 C 9,2 C -32,3 C 9,5 C 9,2 C 0,0 C 80 % 95 % 1017,4 hPa 0,0 l/m 9,0 km/h (2 Bft) SW 225 0 min 6,2 C 7,9 C 19,5 km/h (3 Bft)
21.02.2023 09:10 9,6 C 9,2 C -32,3 C 9,5 C 9,2 C 0,0 C 80 % 95 % 1017,4 hPa 0,0 l/m 9,7 km/h (2 Bft) SW 225 0 min 6,3 C 7,7 C 15,8 km/h (3 Bft)
21.02.2023 09:15 9,7 C 9,1 C -32,3 C 9,7 C 9,4 C 0,0 C 80 % 95 % 1017,4 hPa 0,0 l/m 9,7 km/h (2 Bft) W-SW 247 0 min 6,4 C 8,0 C 8,5 km/h (2 Bft)
21.02.2023 09:20 9,6 C 9,1 C -34,0 C 9,9 C 9,6 C 0,3 C 80 % 94 % 1017,4 hPa 0,0 l/m 9,3 km/h (2 Bft) N-NO 22 0 min 6,3 C 8,3 C 10,5 km/h (2 Bft)
21.02.2023 09:25 9,7 C 9,1 C -34,0 C 10,1 C 9,9 C 0,4 C 80 % 94 % 1017,4 hPa 0,0 l/m 9,0 km/h (2 Bft) S-SO 157 0 min 6,4 C 8,7 C 11,7 km/h (2 Bft)
21.02.2023 09:30 9,9 C 9,1 C -34,5 C 9,9 C 9,9 C 0,0 C 80 % 94 % 1017,4 hPa 0,0 l/m 9,0 km/h (2 Bft) SW 225 0 min 6,6 C 8,7 C 6,9 km/h (2 Bft)
21.02.2023 09:35 9,8 C 9,1 C -34,2 C 9,9 C 9,9 C 0,1 C 80 % 94 % 1017,4 hPa 0,0 l/m 9,7 km/h (2 Bft) S 180 0 min 6,5 C 8,6 C 15,6 km/h (3 Bft)
21.02.2023 09:40 9,9 C 9,1 C -34,2 C 10,4 C 10,1 C 0,5 C 80 % 94 % 1017,4 hPa 0,0 l/m 9,3 km/h (2 Bft) SW 225 0 min 6,6 C 10,1 C 11,1 km/h (2 Bft)
21.02.2023 09:45 10,0 C 9,1 C -32,6 C 10,5 C 10,2 C 0,5 C 80 % 95 % 1017,0 hPa 0,0 l/m 9,7 km/h (2 Bft) S 180 0 min 6,7 C 10,2 C 19,8 km/h (3 Bft)
21.02.2023 09:50 10,1 C 9,1 C -32,5 C 10,5 C 10,1 C 0,4 C 80 % 95 % 1017,0 hPa 0,0 l/m 9,3 km/h (2 Bft) SW 225 0 min 6,8 C 10,1 C 14,6 km/h (3 Bft)
21.02.2023 09:55 10,0 C 9,1 C -32,1 C 10,6 C 10,3 C 0,6 C 79 % 95 % 1017,0 hPa 0,0 l/m 9,0 km/h (2 Bft) S-SW 202 0 min 6,5 C 10,3 C 7,7 km/h (2 Bft)
21.02.2023 10:00 10,1 C 9,1 C -32,1 C 10,6 C 10,2 C 0,5 C 79 % 95 % 1017,0 hPa 0,0 l/m 9,2 km/h (2 Bft) SW 225 0 min 6,6 C 10,2 C 13,4 km/h (3 Bft)
21.02.2023 10:05 10,1 C 9,1 C -32,1 C 10,6 C 10,3 C 0,5 C 79 % 95 % 1017,0 hPa 0,0 l/m 9,0 km/h (2 Bft) W-SW 247 0 min 6,6 C 10,3 C 16,7 km/h (3 Bft)
21.02.2023 10:11 10,1 C 9,1 C -33,9 C 10,4 C 9,9 C 0,3 C 79 % 94 % 1017,0 hPa 0,0 l/m 9,3 km/h (2 Bft) N 0 0 min 6,6 C 8,6 C 17,5 km/h (3 Bft)
21.02.2023 10:26 10,1 C 9,1 C -34,1 C 10,2 C 9,8 C 0,1 C 79 % 94 % 1017,7 hPa 0,0 l/m 10,1 km/h (2 Bft) SW 225 0 min 6,6 C 8,4 C 9,2 km/h (2 Bft)
21.02.2023 10:42 10,3 C 9,2 C -33,9 C 10,7 C 10,7 C 0,4 C 79 % 94 % 1016,9 hPa 0,0 l/m 8,5 km/h (2 Bft) SW 225 0 min 6,8 C 10,7 C 9,8 km/h (2 Bft)
21.02.2023 10:50 10,3 C 9,2 C -32,5 C 10,7 C 10,7 C 0,4 C 78 % 95 % 1016,9 hPa 0,0 l/m 8,2 km/h (2 Bft) SW 225 0 min 6,6 C 10,7 C 13,7 km/h (3 Bft)
21.02.2023 10:55 10,4 C 9,2 C -32,5 C 10,7 C 10,7 C 0,3 C 78 % 95 % 1016,9 hPa 0,0 l/m 8,5 km/h (2 Bft) SW 225 0 min 6,7 C 10,7 C 10,9 km/h (2 Bft)
21.02.2023 11:00 10,4 C 9,2 C -32,3 C 10,9 C 10,6 C 0,5 C 78 % 95 % 1016,9 hPa 0,0 l/m 8,9 km/h (2 Bft) S-SW 202 0 min 6,7 C 10,6 C 12,7 km/h (3 Bft)
21.02.2023 11:05 10,4 C 9,2 C -32,9 C 11,1 C 10,9 C 0,7 C 78 % 95 % 1017,1 hPa 0,0 l/m 8,9 km/h (2 Bft) SW 225 0 min 6,7 C 10,9 C 12,6 km/h (3 Bft)
21.02.2023 11:10 10,5 C 9,2 C -32,9 C 11,1 C 10,8 C 0,6 C 77 % 95 % 1017,1 hPa 0,0 l/m 9,5 km/h (2 Bft) O 90 0 min 6,6 C 10,8 C 13,0 km/h (3 Bft)
21.02.2023 11:15 10,7 C 9,2 C -33,8 C 10,8 C 10,8 C 0,1 C 77 % 94 % 1017,1 hPa 0,0 l/m 10,3 km/h (2 Bft) SW 225 0 min 6,8 C 10,8 C 12,9 km/h (3 Bft)
21.02.2023 11:20 10,7 C 9,2 C -33,8 C 11,3 C 11,1 C 0,6 C 77 % 94 % 1017,1 hPa 0,0 l/m 9,7 km/h (2 Bft) W-SW 247 0 min 6,8 C 11,1 C 12,7 km/h (3 Bft)
21.02.2023 11:25 10,7 C 9,2 C -34,5 C 11,4 C 11,2 C 0,7 C 77 % 94 % 1017,2 hPa 0,0 l/m 9,2 km/h (2 Bft) W-SW 247 0 min 6,8 C 11,2 C 18,5 km/h (3 Bft)
21.02.2023 11:30 10,8 C 9,2 C -34,5 C 11,2 C 11,2 C 0,4 C 77 % 94 % 1017,2 hPa 0,0 l/m 9,0 km/h (2 Bft) S 180 0 min 6,9 C 11,2 C 10,1 km/h (2 Bft)
21.02.2023 11:35 10,8 C 9,2 C -34,5 C 11,5 C 11,3 C 0,7 C 76 % 94 % 1017,2 hPa 0,0 l/m 8,4 km/h (2 Bft) W 270 0 min 6,7 C 11,3 C 7,6 km/h (2 Bft)
21.02.2023 11:40 10,9 C 9,2 C -34,5 C 11,4 C 11,4 C 0,5 C 76 % 94 % 1017,2 hPa 0,0 l/m 7,4 km/h (2 Bft) SW 225 0 min 6,8 C 11,4 C 7,1 km/h (2 Bft)
21.02.2023 11:45 10,8 C 9,2 C -34,5 C 11,6 C 11,6 C 0,8 C 76 % 94 % 1017,9 hPa 0,0 l/m 7,6 km/h (2 Bft) W-SW 247 0 min 6,7 C 11,6 C 6,9 km/h (2 Bft)
21.02.2023 11:50 10,8 C 9,2 C -34,5 C 11,6 C 11,6 C 0,8 C 76 % 94 % 1017,9 hPa 0,0 l/m 7,6 km/h (2 Bft) SW 225 0 min 6,7 C 11,6 C 15,3 km/h (3 Bft)
21.02.2023 11:55 11,0 C 9,2 C -33,3 C 11,9 C 11,9 C 0,9 C 76 % 95 % 1017,9 hPa 0,0 l/m 6,4 km/h (2 Bft) SW 225 0 min 6,9 C 11,9 C 5,6 km/h (1 Bft)
21.02.2023 12:00 11,0 C 9,2 C -33,3 C 11,7 C 11,7 C 0,7 C 75 % 95 % 1017,9 hPa 0,0 l/m 7,4 km/h (2 Bft) S 180 0 min 6,7 C 11,7 C 10,5 km/h (2 Bft)
21.02.2023 12:05 11,1 C 9,2 C -35,5 C 11,8 C 11,6 C 0,7 C 76 % 94 % 1017,7 hPa 0,0 l/m 8,2 km/h (2 Bft) SW 225 0 min 7,0 C 11,6 C 6,0 km/h (2 Bft)
21.02.2023 12:11 11,0 C 9,2 C -35,5 C 11,7 C 11,7 C 0,7 C 75 % 94 % 1017,7 hPa 0,0 l/m 7,6 km/h (2 Bft) N 0 0 min 6,7 C 11,7 C 9,7 km/h (2 Bft)
21.02.2023 12:26 11,0 C 9,2 C -35,8 C 11,6 C 11,2 C 0,6 C 75 % 94 % 1017,9 hPa 0,0 l/m 7,9 km/h (2 Bft) SW 225 0 min 6,7 C 11,2 C 11,3 km/h (2 Bft)
21.02.2023 12:41 11,1 C 9,3 C -33,7 C 11,4 C 11,4 C 0,3 C 75 % 94 % 1017,2 hPa 0,0 l/m 6,1 km/h (2 Bft) W-SW 247 0 min 6,8 C 11,4 C 12,2 km/h (2 Bft)
21.02.2023 12:42 11,1 C 9,3 C -33,7 C 11,4 C 11,4 C 0,3 C 75 % 94 % 1017,2 hPa 0,0 l/m 6,1 km/h (2 Bft) W-SW 247 0 min 6,8 C 11,4 C 12,2 km/h (2 Bft)
21.02.2023 12:50 11,0 C 9,3 C -33,7 C 11,3 C 11,3 C 0,3 C 75 % 94 % 1017,2 hPa 0,0 l/m 6,9 km/h (2 Bft) SW 225 0 min 6,7 C 11,3 C 3,4 km/h (1 Bft)
21.02.2023 12:55 11,0 C 9,3 C -34,0 C 11,4 C 11,4 C 0,4 C 75 % 94 % 1017,2 hPa 0,0 l/m 6,3 km/h (2 Bft) S 180 0 min 6,7 C 11,4 C 5,8 km/h (2 Bft)
21.02.2023 13:00 10,9 C 9,3 C -34,0 C 11,5 C 11,5 C 0,6 C 75 % 94 % 1017,2 hPa 0,0 l/m 5,6 km/h (1 Bft) S 180 0 min 6,6 C 11,5 C 4,2 km/h (1 Bft)
21.02.2023 13:05 10,9 C 9,3 C -34,0 C 11,3 C 11,3 C 0,4 C 75 % 94 % 1017,2 hPa 0,0 l/m 6,6 km/h (2 Bft) S-SW 202 0 min 6,6 C 11,3 C 14,2 km/h (3 Bft)
21.02.2023 13:10 10,9 C 9,3 C -34,1 C 11,4 C 11,4 C 0,5 C 75 % 94 % 1017,2 hPa 0,0 l/m 6,1 km/h (2 Bft) SW 225 0 min 6,6 C 11,4 C 7,1 km/h (2 Bft)
21.02.2023 13:15 10,9 C 9,3 C -32,0 C 11,2 C 11,2 C 0,3 C 75 % 95 % 1017,2 hPa 0,0 l/m 7,4 km/h (2 Bft) S-SW 202 0 min 6,6 C 11,2 C 11,9 km/h (2 Bft)
21.02.2023 13:20 11,1 C 9,3 C -32,3 C 11,4 C 11,1 C 0,3 C 76 % 95 % 1017,2 hPa 0,0 l/m 7,9 km/h (2 Bft) SW 225 0 min 7,0 C 11,1 C 7,4 km/h (2 Bft)
21.02.2023 13:25 11,1 C 9,3 C -32,3 C 11,4 C 11,4 C 0,3 C 76 % 95 % 1017,0 hPa 0,0 l/m 6,8 km/h (2 Bft) S-SW 202 0 min 7,0 C 11,4 C 6,4 km/h (2 Bft)
21.02.2023 13:30 11,1 C 9,3 C -32,3 C 11,8 C 11,8 C 0,7 C 76 % 95 % 1017,0 hPa 0,0 l/m 5,6 km/h (1 Bft) SW 225 0 min 7,0 C 11,8 C 11,7 km/h (2 Bft)
21.02.2023 13:35 11,0 C 9,3 C -33,3 C 11,9 C 11,9 C 0,9 C 76 % 95 % 1017,0 hPa 0,0 l/m 5,1 km/h (1 Bft) W-SW 247 0 min 6,9 C 11,9 C 3,7 km/h (1 Bft)
21.02.2023 13:40 11,1 C 9,3 C -33,3 C 12,0 C 12,0 C 0,9 C 76 % 95 % 1017,0 hPa 0,0 l/m 5,0 km/h (1 Bft) SW 225 0 min 7,0 C 12,0 C 6,8 km/h (2 Bft)
21.02.2023 13:45 11,1 C 9,3 C -34,8 C 12,1 C 12,1 C 1,0 C 76 % 94 % 1016,7 hPa 0,0 l/m 4,3 km/h (1 Bft) SW 225 0 min 7,0 C 12,1 C 5,1 km/h (1 Bft)
21.02.2023 13:50 11,1 C 9,3 C -35,7 C 12,0 C 12,0 C 0,9 C 76 % 94 % 1016,7 hPa 0,0 l/m 4,7 km/h (1 Bft) SW 225 0 min 7,0 C 12,0 C 11,4 km/h (2 Bft)
21.02.2023 13:55 11,1 C 9,3 C -35,9 C 12,0 C 12,0 C 0,9 C 76 % 94 % 1016,7 hPa 0,0 l/m 3,5 km/h (1 Bft) W-SW 247 0 min 7,0 C 12,0 C 2,9 km/h (1 Bft)
21.02.2023 14:00 11,1 C 9,3 C -34,7 C 12,0 C 12,0 C 0,9 C 76 % 94 % 1016,7 hPa 0,0 l/m 3,5 km/h (1 Bft) SW 225 0 min 7,0 C 12,0 C 7,9 km/h (2 Bft)
21.02.2023 14:05 11,1 C 9,3 C -34,5 C 12,0 C 12,0 C 0,9 C 76 % 94 % 1017,0 hPa 0,0 l/m 4,7 km/h (1 Bft) SW 225 0 min 7,0 C 12,0 C 9,8 km/h (2 Bft)
21.02.2023 14:11 11,3 C 9,4 C -36,8 C 11,9 C 11,9 C 0,6 C 76 % 93 % 1017,0 hPa 0,0 l/m 6,6 km/h (2 Bft) N 0 0 min 7,2 C 11,9 C 10,6 km/h (2 Bft)
21.02.2023 14:26 11,5 C 9,4 C -35,2 C 12,9 C 12,9 C 1,4 C 76 % 91 % 1016,4 hPa 0,0 l/m 6,3 km/h (2 Bft) SW 225 0 min 7,4 C 12,9 C 8,9 km/h (2 Bft)
21.02.2023 14:41 11,9 C 9,4 C -34,2 C 13,8 C 13,8 C 1,9 C 75 % 92 % 1016,1 hPa 0,0 l/m 6,4 km/h (2 Bft) S 180 0 min 7,6 C 13,8 C 3,1 km/h (1 Bft)
21.02.2023 14:42 11,9 C 9,4 C -34,2 C 13,8 C 13,8 C 1,9 C 75 % 92 % 1016,1 hPa 0,0 l/m 6,4 km/h (2 Bft) S 180 0 min 7,6 C 13,8 C 3,1 km/h (1 Bft)
21.02.2023 14:50 11,9 C 9,4 C -33,6 C 13,8 C 13,8 C 1,9 C 75 % 89 % 1016,1 hPa 0,0 l/m 6,4 km/h (2 Bft) N-NW 337 0 min 7,6 C 13,8 C 11,9 km/h (2 Bft)
21.02.2023 14:55 11,9 C 9,4 C -33,6 C 13,3 C 13,3 C 1,4 C 74 % 89 % 1016,1 hPa 0,0 l/m 6,9 km/h (2 Bft) W-SW 247 0 min 7,4 C 13,3 C 10,3 km/h (2 Bft)
21.02.2023 15:00 11,8 C 9,4 C -33,6 C 13,0 C 13,0 C 1,2 C 74 % 89 % 1016,1 hPa 0,0 l/m 7,1 km/h (2 Bft) W-SW 247 0 min 7,3 C 13,0 C 3,9 km/h (1 Bft)
21.02.2023 15:05 11,7 C 9,4 C -32,1 C 13,1 C 13,1 C 1,4 C 74 % 92 % 1016,2 hPa 0,0 l/m 5,6 km/h (1 Bft) S 180 0 min 7,2 C 13,1 C 13,5 km/h (3 Bft)
21.02.2023 15:10 11,7 C 9,4 C -32,1 C 12,8 C 12,8 C 1,1 C 74 % 92 % 1016,2 hPa 0,0 l/m 5,6 km/h (1 Bft) SW 225 0 min 7,2 C 12,8 C 8,5 km/h (2 Bft)
21.02.2023 15:15 11,7 C 9,4 C -32,1 C 12,8 C 12,8 C 1,1 C 74 % 93 % 1016,2 hPa 0,0 l/m 5,8 km/h (2 Bft) SW 225 0 min 7,2 C 12,8 C 8,0 km/h (2 Bft)
21.02.2023 15:20 11,7 C 9,4 C -32,1 C 12,8 C 12,8 C 1,1 C 74 % 93 % 1016,2 hPa 0,0 l/m 5,1 km/h (1 Bft) SW 225 0 min 7,2 C 12,8 C 5,0 km/h (1 Bft)
21.02.2023 15:25 11,8 C 9,4 C -32,1 C 12,8 C 12,8 C 1,0 C 75 % 93 % 1016,1 hPa 0,0 l/m 3,4 km/h (1 Bft) W-SW 247 0 min 7,5 C 12,8 C 2,4 km/h (1 Bft)
21.02.2023 15:30 11,8 C 9,4 C -32,1 C 12,8 C 12,8 C 1,0 C 75 % 93 % 1016,1 hPa 0,0 l/m 2,7 km/h (1 Bft) SW 225 0 min 7,5 C 12,8 C 3,7 km/h (1 Bft)
21.02.2023 15:35 11,8 C 9,5 C -32,1 C 12,7 C 12,7 C 0,9 C 75 % 93 % 1016,1 hPa 0,0 l/m 4,2 km/h (1 Bft) S-SW 202 0 min 7,5 C 12,7 C 10,6 km/h (2 Bft)
21.02.2023 15:40 11,7 C 9,5 C -32,4 C 12,7 C 12,7 C 1,0 C 75 % 95 % 1016,1 hPa 0,0 l/m 4,3 km/h (1 Bft) N-NO 22 0 min 7,4 C 12,7 C 4,5 km/h (1 Bft)
21.02.2023 15:45 11,7 C 9,5 C -32,4 C 12,7 C 12,7 C 1,0 C 75 % 95 % 1015,8 hPa 0,0 l/m 4,5 km/h (1 Bft) S-SW 202 0 min 7,4 C 12,7 C 7,9 km/h (2 Bft)
21.02.2023 15:50 11,7 C 9,5 C -32,4 C 12,7 C 12,7 C 1,0 C 75 % 95 % 1015,8 hPa 0,0 l/m 5,6 km/h (1 Bft) S 180 0 min 7,4 C 12,7 C 8,9 km/h (2 Bft)
21.02.2023 15:55 11,7 C 9,5 C -32,4 C 12,3 C 12,3 C 0,6 C 75 % 95 % 1015,8 hPa 0,0 l/m 6,1 km/h (2 Bft) S 180 0 min 7,4 C 12,3 C 7,6 km/h (2 Bft)
21.02.2023 16:00 11,7 C 9,5 C -32,4 C 12,3 C 12,3 C 0,6 C 75 % 95 % 1015,8 hPa 0,0 l/m 6,0 km/h (2 Bft) SW 225 0 min 7,4 C 12,3 C 6,4 km/h (2 Bft)
21.02.2023 16:05 11,6 C 9,5 C -34,3 C 12,4 C 12,4 C 0,8 C 75 % 94 % 1015,9 hPa 0,0 l/m 5,6 km/h (1 Bft) SW 225 0 min 7,3 C 12,4 C 7,2 km/h (2 Bft)
21.02.2023 16:11 11,6 C 9,5 C -34,3 C 12,3 C 12,3 C 0,7 C 75 % 94 % 1015,9 hPa 0,0 l/m 6,1 km/h (2 Bft) N 0 0 min 7,3 C 12,3 C 8,2 km/h (2 Bft)
21.02.2023 16:27 11,9 C 9,5 C -32,5 C 12,8 C 12,8 C 0,9 C 74 % 95 % 1015,9 hPa 0,0 l/m 7,1 km/h (2 Bft) W-SW 247 0 min 7,4 C 12,8 C 11,7 km/h (2 Bft)
21.02.2023 16:41 12,0 C 9,5 C -33,1 C 13,1 C 13,1 C 1,1 C 74 % 95 % 1015,9 hPa 0,0 l/m 6,4 km/h (2 Bft) S-SW 202 0 min 7,5 C 13,1 C 5,0 km/h (1 Bft)
21.02.2023 16:42 12,0 C 9,5 C -33,1 C 13,1 C 13,1 C 1,1 C 74 % 95 % 1015,9 hPa 0,0 l/m 6,4 km/h (2 Bft) S-SW 202 0 min 7,5 C 13,1 C 5,0 km/h (1 Bft)
21.02.2023 16:50 12,0 C 9,5 C -33,1 C 13,2 C 13,2 C 1,2 C 74 % 95 % 1015,9 hPa 0,0 l/m 5,3 km/h (1 Bft) S-SW 202 8 min 7,5 C 13,2 C 4,3 km/h (1 Bft)
21.02.2023 16:55 11,9 C 9,5 C -32,8 C 12,6 C 12,6 C 0,7 C 73 % 94 % 1015,9 hPa 0,0 l/m 3,9 km/h (1 Bft) S 180 0 min 7,2 C 12,6 C 3,5 km/h (1 Bft)
21.02.2023 17:00 11,7 C 9,5 C -34,1 C 12,4 C 12,4 C 0,7 C 74 % 94 % 1015,9 hPa 0,0 l/m 3,9 km/h (1 Bft) S-SW 202 0 min 7,2 C 12,4 C 5,5 km/h (1 Bft)
21.02.2023 17:05 11,6 C 9,5 C -34,1 C 12,0 C 12,0 C 0,4 C 73 % 94 % 1016,2 hPa 0,0 l/m 4,7 km/h (1 Bft) W-SW 247 0 min 6,9 C 12,0 C 10,5 km/h (2 Bft)
21.02.2023 17:10 11,4 C 9,5 C -34,1 C 11,6 C 11,6 C 0,2 C 73 % 94 % 1016,2 hPa 0,0 l/m 6,3 km/h (2 Bft) S 180 0 min 6,7 C 11,6 C 5,8 km/h (2 Bft)
21.02.2023 17:15 11,4 C 9,5 C -34,1 C 11,4 C 11,3 C 0,0 C 73 % 94 % 1016,2 hPa 0,0 l/m 6,1 km/h (2 Bft) S-SW 202 0 min 6,7 C 11,3 C 7,2 km/h (2 Bft)
21.02.2023 17:20 11,3 C 9,6 C -34,1 C 11,7 C 11,7 C 0,4 C 73 % 94 % 1016,2 hPa 0,0 l/m 4,8 km/h (1 Bft) S 180 5 min 6,6 C 11,7 C 10,9 km/h (2 Bft)
21.02.2023 17:25 11,2 C 9,6 C -35,2 C 11,7 C 11,7 C 0,5 C 74 % 94 % 1016,4 hPa 0,0 l/m 4,8 km/h (1 Bft) W-SW 247 0 min 6,7 C 11,7 C 4,8 km/h (1 Bft)
21.02.2023 17:30 11,3 C 9,7 C -36,5 C 11,5 C 11,5 C 0,2 C 74 % 94 % 1016,4 hPa 0,0 l/m 4,8 km/h (1 Bft) W-SW 247 0 min 6,8 C 11,5 C 8,0 km/h (2 Bft)
21.02.2023 17:35 11,1 C 9,7 C -36,3 C 11,2 C 11,2 C 0,1 C 74 % 94 % 1016,4 hPa 0,0 l/m 3,9 km/h (1 Bft) S-SW 202 0 min 6,6 C 11,2 C 4,0 km/h (1 Bft)
21.02.2023 17:40 11,1 C 9,7 C -36,3 C 11,1 C 11,0 C 0,0 C 75 % 94 % 1016,4 hPa 0,0 l/m 3,4 km/h (1 Bft) S-SW 202 0 min 6,8 C 11,0 C 4,8 km/h (1 Bft)
21.02.2023 17:45 10,9 C 9,7 C -36,3 C 10,9 C 10,9 C 0,0 C 75 % 94 % 1016,9 hPa 0,0 l/m 3,2 km/h (1 Bft) SW 225 0 min 6,6 C 10,9 C 5,3 km/h (1 Bft)
21.02.2023 17:50 10,8 C 9,7 C -37,0 C 10,8 C 10,8 C 0,0 C 75 % 93 % 1016,9 hPa 0,0 l/m 2,7 km/h (1 Bft) SW 225 0 min 6,5 C 10,8 C 3,7 km/h (1 Bft)
21.02.2023 17:55 10,8 C 9,7 C -37,0 C 10,8 C 10,7 C 0,0 C 75 % 93 % 1016,9 hPa 0,0 l/m 2,1 km/h (1 Bft) SW 225 0 min 6,5 C 10,7 C 2,6 km/h (1 Bft)
21.02.2023 18:00 10,7 C 9,7 C -37,1 C 10,7 C 10,6 C 0,0 C 76 % 93 % 1016,9 hPa 0,0 l/m 1,8 km/h (1 Bft) SW 225 0 min 6,6 C 10,6 C 0,0 km/h (0 Bft)
21.02.2023 18:05 10,6 C 9,7 C -38,6 C 10,5 C 10,4 C 0,0 C 76 % 93 % 1016,6 hPa 0,0 l/m 1,0 km/h (0 Bft) S-SW 202 0 min 6,5 C 10,4 C 0,0 km/h (0 Bft)
21.02.2023 18:11 10,5 C 9,7 C -36,6 C 10,4 C 10,3 C 0,0 C 76 % 94 % 1016,6 hPa 0,0 l/m 0,3 km/h (0 Bft) N 0 0 min 6,5 C 10,3 C 1,6 km/h (1 Bft)
21.02.2023 18:26 10,4 C 9,7 C -37,1 C 10,4 C 10,3 C 0,0 C 77 % 93 % 1016,8 hPa 0,0 l/m 0,3 km/h (0 Bft) SW 225 0 min 6,5 C 10,3 C 2,6 km/h (1 Bft)
21.02.2023 18:42 10,3 C 9,7 C -35,6 C 10,3 C 10,3 C 0,0 C 78 % 94 % 1016,6 hPa 0,0 l/m 0,0 km/h (0 Bft) SW 225 0 min 6,6 C 10,3 C 0,0 km/h (0 Bft)
21.02.2023 18:55 10,3 C 9,7 C -35,6 C 10,3 C 10,2 C 0,0 C 78 % 94 % 1016,6 hPa 0,0 l/m 0,0 km/h (0 Bft) SW 225 0 min 6,6 C 10,2 C 0,0 km/h (0 Bft)
21.02.2023 19:00 10,1 C 9,7 C -35,6 C 10,1 C 10,1 C 0,0 C 78 % 94 % 1016,6 hPa 0,0 l/m 0,0 km/h (0 Bft) SW 225 0 min 6,4 C 10,1 C 0,0 km/h (0 Bft)
21.02.2023 19:05 10,0 C 9,7 C -36,1 C 10,0 C 10,0 C 0,0 C 79 % 94 % 1016,9 hPa 0,0 l/m 0,0 km/h (0 Bft) SW 225 0 min 6,5 C 10,0 C 0,0 km/h (0 Bft)
21.02.2023 19:10 10,1 C 9,7 C -36,1 C 10,1 C 10,0 C 0,0 C 79 % 94 % 1016,9 hPa 0,0 l/m 0,0 km/h (0 Bft) SW 225 0 min 6,6 C 10,0 C 0,0 km/h (0 Bft)
21.02.2023 19:15 10,1 C 9,7 C -36,1 C 10,1 C 10,0 C 0,0 C 79 % 94 % 1016,9 hPa 0,0 l/m 0,2 km/h (0 Bft) W-SW 247 0 min 6,6 C 10,0 C 2,6 km/h (1 Bft)
21.02.2023 19:20 10,0 C 9,7 C -36,6 C 10,1 C 10,1 C 0,1 C 79 % 94 % 1016,9 hPa 0,0 l/m 0,5 km/h (0 Bft) SW 225 0 min 6,5 C 10,1 C 0,0 km/h (0 Bft)
21.02.2023 19:25 10,1 C 9,7 C -36,6 C 10,1 C 10,1 C 0,0 C 79 % 94 % 1017,0 hPa 0,0 l/m 0,5 km/h (0 Bft) SW 225 0 min 6,6 C 10,1 C 0,0 km/h (0 Bft)
21.02.2023 19:30 10,0 C 9,7 C -37,6 C 10,1 C 10,1 C 0,1 C 79 % 93 % 1017,0 hPa 0,0 l/m 0,2 km/h (0 Bft) W-SW 247 0 min 6,5 C 10,1 C 0,0 km/h (0 Bft)
21.02.2023 19:35 10,0 C 9,7 C -37,6 C 10,1 C 10,1 C 0,1 C 79 % 93 % 1017,0 hPa 0,0 l/m 0,2 km/h (0 Bft) W-SW 247 0 min 6,5 C 10,1 C 0,0 km/h (0 Bft)
21.02.2023 19:40 9,9 C 9,7 C -37,6 C 10,0 C 10,0 C 0,1 C 79 % 93 % 1017,0 hPa 0,0 l/m 0,3 km/h (0 Bft) SW 225 0 min 6,4 C 10,0 C 2,4 km/h (1 Bft)
21.02.2023 19:45 10,0 C 9,7 C -39,6 C 10,1 C 10,1 C 0,1 C 79 % 92 % 1017,8 hPa 0,0 l/m 0,8 km/h (0 Bft) W-SW 247 0 min 6,5 C 10,1 C 0,0 km/h (0 Bft)
21.02.2023 19:50 10,0 C 9,7 C -39,6 C 10,1 C 10,1 C 0,1 C 79 % 92 % 1017,8 hPa 0,0 l/m 1,3 km/h (1 Bft) SW 225 0 min 6,5 C 10,1 C 2,3 km/h (1 Bft)
21.02.2023 19:55 10,0 C 9,7 C -39,5 C 10,1 C 10,1 C 0,1 C 79 % 93 % 1017,8 hPa 0,0 l/m 1,1 km/h (1 Bft) W-SW 247 0 min 6,5 C 10,1 C 0,0 km/h (0 Bft)
21.02.2023 20:00 10,0 C 9,7 C -39,5 C 10,1 C 10,1 C 0,1 C 79 % 93 % 1017,8 hPa 0,0 l/m 1,0 km/h (0 Bft) SW 225 0 min 6,5 C 10,1 C 0,0 km/h (0 Bft)
21.02.2023 20:05 9,9 C 9,7 C -39,5 C 10,0 C 10,0 C 0,1 C 80 % 93 % 1017,4 hPa 0,0 l/m 1,0 km/h (0 Bft) SW 225 0 min 6,6 C 10,0 C 2,3 km/h (1 Bft)
21.02.2023 20:11 9,9 C 9,7 C -39,3 C 10,0 C 10,0 C 0,1 C 80 % 93 % 1017,4 hPa 0,0 l/m 0,8 km/h (0 Bft) N 0 0 min 6,6 C 10,0 C 3,4 km/h (1 Bft)
21.02.2023 20:27 9,9 C 9,8 C -38,8 C 10,0 C 10,0 C 0,1 C 80 % 93 % 1017,3 hPa 0,0 l/m 0,6 km/h (0 Bft) SW 225 0 min 6,6 C 10,0 C 0,0 km/h (0 Bft)
21.02.2023 20:31 9,8 C 9,8 C -38,2 C 9,9 C 9,9 C 0,1 C 80 % 93 % 1017,3 hPa 0,0 l/m 0,5 km/h (0 Bft) NW 315 0 min 6,5 C 9,9 C 0,0 km/h (0 Bft)
21.02.2023 20:36 9,7 C 9,8 C -38,2 C 9,8 C 9,8 C 0,1 C 80 % 93 % 1017,3 hPa 0,0 l/m 0,2 km/h (0 Bft) NW 315 0 min 6,4 C 9,8 C 0,0 km/h (0 Bft)
21.02.2023 20:41 9,6 C 9,8 C -39,4 C 9,8 C 9,8 C 0,2 C 81 % 93 % 1017,3 hPa 0,0 l/m 0,2 km/h (0 Bft) W-SW 247 0 min 6,5 C 9,8 C 0,0 km/h (0 Bft)
21.02.2023 20:46 9,6 C 9,8 C -39,4 C 9,7 C 9,7 C 0,1 C 81 % 93 % 1017,3 hPa 0,0 l/m 0,0 km/h (0 Bft) SW 225 0 min 6,5 C 9,7 C 0,0 km/h (0 Bft)
21.02.2023 20:50 9,6 C 9,8 C -39,4 C 9,7 C 9,7 C 0,1 C 81 % 93 % 1017,3 hPa 0,0 l/m 0,0 km/h (0 Bft) SW 225 0 min 6,5 C 9,7 C 0,0 km/h (0 Bft)
21.02.2023 20:55 9,7 C 9,8 C -39,4 C 9,7 C 9,6 C 0,0 C 81 % 93 % 1017,3 hPa 0,0 l/m 0,0 km/h (0 Bft) SW 225 0 min 6,6 C 9,6 C 0,0 km/h (0 Bft)
21.02.2023 21:00 9,6 C 9,8 C -39,6 C 9,6 C 9,6 C 0,0 C 81 % 92 % 1017,3 hPa 0,0 l/m 0,0 km/h (0 Bft) W-NW 292 0 min 6,5 C 9,6 C 0,0 km/h (0 Bft)
21.02.2023 21:05 9,5 C 9,8 C -39,6 C 9,6 C 9,6 C 0,1 C 81 % 92 % 1017,5 hPa 0,0 l/m 0,0 km/h (0 Bft) W-SW 247 0 min 6,4 C 9,6 C 0,0 km/h (0 Bft)
21.02.2023 21:10 9,4 C 9,8 C -39,6 C 9,5 C 9,5 C 0,1 C 81 % 92 % 1017,5 hPa 0,0 l/m 0,0 km/h (0 Bft) O-SO 112 0 min 6,3 C 9,5 C 0,0 km/h (0 Bft)
21.02.2023 21:15 9,5 C 9,8 C -37,9 C 9,5 C 9,4 C 0,0 C 82 % 93 % 1017,5 hPa 0,0 l/m 0,0 km/h (0 Bft) S 180 0 min 6,6 C 9,4 C 0,0 km/h (0 Bft)
21.02.2023 21:20 9,5 C 9,8 C -39,6 C 9,5 C 9,4 C 0,0 C 82 % 92 % 1017,5 hPa 0,0 l/m 0,0 km/h (0 Bft) N-NO 22 0 min 6,6 C 9,4 C 0,0 km/h (0 Bft)
21.02.2023 21:25 9,3 C 9,8 C -39,6 C 9,3 C 9,3 C 0,0 C 81 % 92 % 1017,6 hPa 0,0 l/m 0,0 km/h (0 Bft) NW 315 0 min 6,2 C 9,3 C 0,0 km/h (0 Bft)
21.02.2023 21:30 9,3 C 9,8 C -39,6 C 9,3 C 9,3 C 0,0 C 81 % 92 % 1017,6 hPa 0,0 l/m 0,0 km/h (0 Bft) O-NO 67 0 min 6,2 C 9,3 C 0,0 km/h (0 Bft)
21.02.2023 21:35 9,2 C 9,8 C -39,6 C 9,2 C 9,2 C 0,0 C 82 % 92 % 1017,6 hPa 0,0 l/m 0,0 km/h (0 Bft) W-SW 247 0 min 6,3 C 9,2 C 0,0 km/h (0 Bft)
21.02.2023 21:40 9,2 C 9,8 C -39,6 C 9,2 C 9,2 C 0,0 C 82 % 92 % 1017,6 hPa 0,0 l/m 0,0 km/h (0 Bft) W-SW 247 0 min 6,3 C 9,2 C 0,0 km/h (0 Bft)
21.02.2023 21:45 9,2 C 9,8 C -39,6 C 9,2 C 9,1 C 0,0 C 82 % 92 % 1017,9 hPa 0,0 l/m 0,0 km/h (0 Bft) W-SW 247 0 min 6,3 C 9,1 C 0,0 km/h (0 Bft)
21.02.2023 21:50 9,2 C 9,8 C -39,6 C 9,2 C 9,1 C 0,0 C 82 % 92 % 1017,9 hPa 0,0 l/m 0,0 km/h (0 Bft) SW 225 0 min 6,3 C 9,1 C 0,0 km/h (0 Bft)
21.02.2023 21:55 9,1 C 9,8 C -39,6 C 9,1 C 9,1 C 0,0 C 82 % 92 % 1017,9 hPa 0,0 l/m 0,0 km/h (0 Bft) SW 225 0 min 6,2 C 9,1 C 0,0 km/h (0 Bft)
21.02.2023 22:00 9,1 C 9,8 C -39,6 C 9,1 C 9,1 C 0,0 C 82 % 92 % 1017,9 hPa 0,0 l/m 0,0 km/h (0 Bft) W 270 0 min 6,2 C 9,1 C 0,0 km/h (0 Bft)
21.02.2023 22:05 9,1 C 9,8 C -39,3 C 9,0 C 8,9 C 0,0 C 83 % 93 % 1018,0 hPa 0,0 l/m 0,0 km/h (0 Bft) W-SW 247 0 min 6,4 C 8,9 C 0,0 km/h (0 Bft)
21.02.2023 22:11 9,1 C 9,8 C -39,6 C 9,0 C 8,8 C 0,0 C 83 % 92 % 1018,0 hPa 0,0 l/m 0,0 km/h (0 Bft) N 0 0 min 6,4 C 8,8 C 0,0 km/h (0 Bft)
21.02.2023 22:26 8,9 C 9,8 C -39,2 C 8,9 C 8,9 C 0,0 C 83 % 93 % 1017,2 hPa 0,0 l/m 0,0 km/h (0 Bft) NW 315 0 min 6,2 C 8,9 C 0,0 km/h (0 Bft)
21.02.2023 22:27 8,9 C 9,8 C -39,2 C 8,9 C 8,9 C 0,0 C 83 % 93 % 1017,2 hPa 0,0 l/m 0,0 km/h (0 Bft) NW 315 0 min 6,2 C 8,9 C 0,0 km/h (0 Bft)
21.02.2023 22:42 8,9 C 9,8 C -39,6 C 9,0 C 9,0 C 0,1 C 83 % 92 % 1017,4 hPa 0,0 l/m 0,0 km/h (0 Bft) SW 225 0 min 6,2 C 9,0 C 0,0 km/h (0 Bft)
21.02.2023 22:50 8,9 C 9,8 C -39,6 C 9,0 C 9,0 C 0,1 C 83 % 92 % 1017,4 hPa 0,0 l/m 0,0 km/h (0 Bft) SW 225 0 min 6,2 C 9,0 C 0,0 km/h (0 Bft)
21.02.2023 22:55 8,8 C 9,8 C -39,4 C 8,9 C 8,9 C 0,1 C 83 % 93 % 1017,4 hPa 0,0 l/m 0,0 km/h (0 Bft) W-SW 247 0 min 6,1 C 8,9 C 0,0 km/h (0 Bft)
21.02.2023 23:00 8,8 C 9,8 C -39,6 C 8,9 C 8,9 C 0,1 C 83 % 92 % 1017,4 hPa 0,0 l/m 0,0 km/h (0 Bft) W-SW 247 0 min 6,1 C 8,9 C 0,0 km/h (0 Bft)
21.02.2023 23:05 8,9 C 9,8 C -39,6 C 8,9 C 8,8 C 0,0 C 83 % 92 % 1017,4 hPa 0,0 l/m 0,0 km/h (0 Bft) W-SW 247 0 min 6,2 C 8,8 C 0,0 km/h (0 Bft)
21.02.2023 23:10 8,9 C 9,8 C -39,6 C 8,9 C 8,8 C 0,0 C 83 % 92 % 1017,4 hPa 0,0 l/m 0,0 km/h (0 Bft) S-SW 202 0 min 6,2 C 8,8 C 0,0 km/h (0 Bft)
21.02.2023 23:15 8,8 C 9,8 C -39,6 C 8,8 C 8,8 C 0,0 C 83 % 92 % 1017,4 hPa 0,0 l/m 0,0 km/h (0 Bft) SW 225 0 min 6,1 C 8,8 C 0,0 km/h (0 Bft)
21.02.2023 23:20 8,7 C 9,8 C -39,6 C 8,8 C 8,8 C 0,1 C 83 % 92 % 1017,4 hPa 0,0 l/m 0,0 km/h (0 Bft) S-SW 202 0 min 6,0 C 8,8 C 0,0 km/h (0 Bft)
21.02.2023 23:25 8,7 C 9,8 C -39,6 C 8,8 C 8,8 C 0,1 C 83 % 92 % 1017,8 hPa 0,0 l/m 0,0 km/h (0 Bft) SW 225 0 min 6,0 C 8,8 C 0,0 km/h (0 Bft)
21.02.2023 23:30 8,7 C 9,8 C -39,6 C 8,8 C 8,8 C 0,1 C 83 % 92 % 1017,8 hPa 0,0 l/m 0,0 km/h (0 Bft) SW 225 0 min 6,0 C 8,8 C 0,0 km/h (0 Bft)
21.02.2023 23:35 8,7 C 9,8 C -39,6 C 8,8 C 8,8 C 0,1 C 83 % 92 % 1017,8 hPa 0,0 l/m 0,0 km/h (0 Bft) W-SW 247 0 min 6,0 C 8,8 C 0,0 km/h (0 Bft)
21.02.2023 23:40 8,7 C 9,8 C -39,6 C 8,7 C 8,7 C 0,0 C 83 % 92 % 1017,8 hPa 0,0 l/m 0,0 km/h (0 Bft) SO 135 0 min 6,0 C 8,7 C 0,0 km/h (0 Bft)
21.02.2023 23:45 8,5 C 9,8 C -39,6 C 8,7 C 8,7 C 0,2 C 83 % 92 % 1017,5 hPa 0,0 l/m 0,0 km/h (0 Bft) W-SW 247 0 min 5,8 C 8,7 C 0,0 km/h (0 Bft)
21.02.2023 23:50 8,6 C 9,8 C -39,6 C 8,7 C 8,7 C 0,1 C 83 % 92 % 1017,5 hPa 0,0 l/m 0,0 km/h (0 Bft) S-SW 202 0 min 5,9 C 8,7 C 0,0 km/h (0 Bft)
21.02.2023 23:55 8,7 C 9,8 C -39,6 C 8,8 C 8,8 C 0,1 C 84 % 92 % 1017,5 hPa 0,0 l/m 0,0 km/h (0 Bft) S-SW 202 0 min 6,2 C 8,8 C 0,0 km/h (0 Bft)
_ Min-Zeit 23:45 00:00 19:45 07:38 01:35 00:00 16:55 14:50 06:25 - 18:42 - - - 01:00 01:35 18:00
Minimum _ 8,5 C 8,9 C -39,6 C 8,5 C 7,6 C 0,0 C 73 % 89 % 1015,4 hPa - 0,0 km/h (0 Bft) - - - 5,2 C 5,2 C 0,0 km/h (0 Bft)
_ Max-Zeit 16:41 20:27 00:40 14:41 14:41 14:41 23:55 00:40 22:05 00:00 00:00 - - 16:50 14:41 14:41 01:15
Maximum _ 12,0 C 9,8 C -26,9 C 13,8 C 13,8 C 1,9 C 84 % 97 % 1018,0 hPa 0,0 l/m 14,0 km/h
S-SW (3 Bft)
- - 8 min 7,6 C 13,8 C 23,5 km/h
SW (4 Bft)
Durchschnitt _ 10,1 C 9,3 C -34,4 C 10,2 C 9,9 C 0,3 C 78 % 94 % 1016,7 hPa #0,0 l/m 6,4 km/h (2 Bft) SW - #13 min. 6,4 C 9,2 C 8,2 km/h (2 Bft)
2023 www.wetterstation-wechselburg.de